TimeEDT,TemperatureF,Dew PointF,Humidity,Sea Level PressureIn,VisibilityMPH,Wind Direction,Wind SpeedMPH,Gust SpeedMPH,PrecipitationIn,Events,Conditions,WindDirDegrees,DateUTC
12:52 AM,63.0,44.1,50,29.67,10.0,South,6.9,-,0.00,,Mostly Cloudy,180,2013-04-25 04:52:00
1:52 AM,63.0,45.0,52,29.67,10.0,Variable,6.9,-,N/A,,Overcast,0,2013-04-25 05:52:00
2:52 AM,61.0,46.0,58,29.69,10.0,SW,10.4,17.3,0.00,Rain,Light Rain,220,2013-04-25 06:52:00
3:52 AM,60.1,43.0,53,29.73,10.0,WSW,12.7,23.0,0.00,,Overcast,240,2013-04-25 07:52:00
4:52 AM,50.0,35.1,57,29.83,10.0,West,12.7,27.6,N/A,,Scattered Clouds,270,2013-04-25 08:52:00
5:52 AM,48.0,32.0,54,29.91,10.0,West,12.7,20.7,N/A,,Overcast,270,2013-04-25 09:52:00
6:52 AM,46.0,30.0,54,29.96,10.0,West,10.4,-,N/A,,Mostly Cloudy,270,2013-04-25 10:52:00
7:52 AM,46.0,28.9,51,30.00,10.0,West,13.8,-,N/A,,Scattered Clouds,280,2013-04-25 11:52:00
8:52 AM,46.0,28.0,50,30.03,10.0,West,13.8,25.3,N/A,,Scattered Clouds,270,2013-04-25 12:52:00
9:52 AM,45.0,28.0,52,30.06,10.0,WNW,13.8,19.6,N/A,,Overcast,290,2013-04-25 13:52:00
10:52 AM,46.0,28.0,50,30.10,10.0,WNW,12.7,-,N/A,,Scattered Clouds,300,2013-04-25 14:52:00
11:52 AM,46.9,28.0,48,30.11,10.0,West,11.5,18.4,N/A,,Mostly Cloudy,270,2013-04-25 15:52:00
12:52 PM,48.9,28.0,44,30.13,10.0,WNW,11.5,-,N/A,,Mostly Cloudy,290,2013-04-25 16:52:00
1:52 PM,52.0,27.0,38,30.13,10.0,Variable,6.9,17.3,N/A,,Mostly Cloudy,0,2013-04-25 17:52:00
2:52 PM,52.0,26.1,37,30.13,10.0,NW,9.2,16.1,N/A,,Partly Cloudy,320,2013-04-25 18:52:00
3:52 PM,52.0,23.0,32,30.14,10.0,Variable,5.8,19.6,N/A,,Clear,0,2013-04-25 19:52:00
4:52 PM,53.1,21.9,30,30.15,10.0,North,8.1,-,N/A,,Clear,350,2013-04-25 20:52:00
5:52 PM,53.1,21.9,30,30.18,10.0,West,6.9,-,N/A,,Clear,280,2013-04-25 21:52:00
6:52 PM,51.1,19.9,29,30.20,10.0,WNW,5.8,-,N/A,,Clear,290,2013-04-25 22:52:00
7:52 PM,42.1,28.0,58,30.23,10.0,Calm,Calm,-,N/A,,Clear,0,2013-04-25 23:52:00
8:52 PM,35.1,28.0,76,30.27,10.0,Calm,Calm,-,N/A,,Clear,0,2013-04-26 00:52:00
9:52 PM,32.0,24.1,73,30.30,10.0,Calm,Calm,-,N/A,,Clear,0,2013-04-26 01:52:00
10:52 PM,30.9,25.0,79,30.32,10.0,Calm,Calm,-,N/A,,Clear,0,2013-04-26 02:52:00
11:52 PM,28.9,24.1,82,30.34,10.0,Calm,Calm,-,N/A,,Clear,0,2013-04-26 03:52:00